Location: Gadern
(49.5873°N, 8.8138°E)
Time: 00:14:35
(UTC+00:00)

PKM - Pass Details

Date: 19 May 2025
Orbit: 410 x 13726 km, 55.3° (Epoch: 21 June)

Event Time Altitude Azimuth Distance (km) Brightness Sun altitude
Rises 22:17:41 0° 256° (WSW) 2,368 7.1 -19.0°
Reaches altitude 10° 22:19:26 10° 262° (W) 1,487 6.1 -19.1°
Maximum altitude 22:22:08 55° 342° (NNW) 604 4.3 -19.2°
Drops below altitude 10° 22:26:44 10° 61° (ENE) 2,514 7.3 -19.4°
Sets 22:30:42 0° 66° (ENE) 4,428 8.6 -19.5°
